When you browse on this site, cookies collect data to enhance your experience and personalize the content and advertising you see.
Visit our Privacy Policy to learn more. By continuing to use the site, you agree to this use of cookies and data.
  • In Romania
  • List of Countries
  • For 7 days
  • Water Temperature
  • Satellite Maps
  • Weather Map
  • Weather Widgets
  • user-avatar
    Login

    Hourly Weather Akkaharyu

    Today, 23 July, Tuesday

    Time Temperature Precipitation Wind Pressure Humidity
    00:00 +18°C° 0 mm 1 mps 753 mmHg 62%
    01:00 +16°C° 0 mm 1 mps 753 mmHg 64%
    02:00 +16°C° 0 mm 1 mps 753 mmHg 66%
    03:00 +16°C° 0 mm 1 mps 753 mmHg 68%
    04:00 +16°C° 0 mm 1 mps 753 mmHg 70%
    05:00 +16°C° 0 mm 1 mps 753 mmHg 72%
    06:00 +19°C° 0 mm 1 mps 753 mmHg 65%
    07:00 +21°C° 0 mm 1 mps 753 mmHg 57%
    08:00 +22°C° 0 mm 1 mps 753 mmHg 50%
    09:00 +23°C° 0 mm 2 mps 753 mmHg 46%
    10:00 +24°C° 0 mm 2 mps 753 mmHg 43%
    11:00 +25°C° 0 mm 2 mps 753 mmHg 39%
    12:00 +26°C° 0 mm 2 mps 753 mmHg 39%
    13:00 +26°C° 0 mm 2 mps 753 mmHg 39%
    14:00 +26°C° 0 mm 2 mps 753 mmHg 39%
    15:00 +26°C° 0 mm 2 mps 753 mmHg 40%
    16:00 +25°C° 0 mm 2 mps 753 mmHg 42%
    17:00 +25°C° 0 mm 2 mps 753 mmHg 43%
    18:00 +23°C° 0 mm 2 mps 753 mmHg 48%
    19:00 +21°C° 0 mm 2 mps 752 mmHg 53%
    20:00 +20°C° 0 mm 1 mps 752 mmHg 58%
    21:00 +19°C° 0 mm 1 mps 752 mmHg 56%
    22:00 +18°C° 0 mm 1 mps 753 mmHg 53%
    23:00 +16°C° 0 mm 1 mps 753 mmHg 51%

    Tomorrow, 24 July, Wednesday

    Time Temperature Precipitation Wind Pressure Humidity
    00:00 +16°C° 0 mm 2 mps 753 mmHg 55%
    01:00 +16°C° 0 mm 2 mps 753 mmHg 60%
    02:00 +15°C° 0 mm 2 mps 753 mmHg 64%
    03:00 +15°C° 0.1 mm 2 mps 753 mmHg 71%
    04:00 +14°C° 0.1 mm 1 mps 753 mmHg 79%
    05:00 +14°C° 0.1 mm 1 mps 753 mmHg 86%
    06:00 +15°C° 0.1 mm 1 mps 753 mmHg 83%
    07:00 +16°C° 0.1 mm 1 mps 753 mmHg 81%
    08:00 +18°C° 0.1 mm 1 mps 753 mmHg 78%
    09:00 +18°C° 0 mm 1 mps 753 mmHg 77%
    10:00 +18°C° 0 mm 1 mps 753 mmHg 75%
    11:00 +18°C° 0 mm 1 mps 753 mmHg 74%
    12:00 +19°C° 0 mm 1 mps 753 mmHg 69%
    13:00 +19°C° 0 mm 1 mps 753 mmHg 65%
    14:00 +20°C° 0 mm 1 mps 753 mmHg 61%
    15:00 +20°C° 0 mm 1 mps 753 mmHg 58%
    16:00 +21°C° 0 mm 1 mps 754 mmHg 56%
    17:00 +22°C° 0 mm 1 mps 754 mmHg 54%
    18:00 +20°C° 0 mm 1 mps 754 mmHg 60%
    19:00 +19°C° 0 mm 1 mps 754 mmHg 67%
    20:00 +16°C° 0 mm 1 mps 754 mmHg 73%
    21:00 +16°C° 0 mm 1 mps 754 mmHg 76%
    22:00 +15°C° 0 mm 1 mps 754 mmHg 79%
    23:00 +14°C° 0 mm 1 mps 755 mmHg 82%

    Day after tomorrow, 25 July, Thursday

    Time Temperature Precipitation Wind Pressure Humidity
    00:00 +14°C° 0 mm 1 mps 755 mmHg 85%
    01:00 +13°C° 0 mm 1 mps 755 mmHg 88%
    02:00 +13°C° 0 mm 2 mps 755 mmHg 90%
    03:00 +13°C° 0 mm 2 mps 755 mmHg 90%
    04:00 +13°C° 0 mm 2 mps 755 mmHg 90%
    05:00 +13°C° 0 mm 2 mps 756 mmHg 89%
    06:00 +15°C° 0 mm 2 mps 756 mmHg 82%
    07:00 +16°C° 0 mm 2 mps 756 mmHg 74%
    08:00 +18°C° 0 mm 2 mps 756 mmHg 66%
    09:00 +20°C° 0 mm 2 mps 756 mmHg 60%
    10:00 +21°C° 0 mm 2 mps 756 mmHg 54%
    11:00 +24°C° 0 mm 2 mps 757 mmHg 48%
    12:00 +24°C° 0 mm 2 mps 757 mmHg 46%
    13:00 +25°C° 0 mm 2 mps 756 mmHg 44%
    14:00 +26°C° 0 mm 2 mps 756 mmHg 43%
    15:00 +26°C° 0 mm 2 mps 757 mmHg 45%
    16:00 +26°C° 0 mm 2 mps 757 mmHg 47%
    17:00 +26°C° 0 mm 2 mps 757 mmHg 50%
    18:00 +24°C° 0 mm 2 mps 757 mmHg 57%
    19:00 +23°C° 0 mm 2 mps 757 mmHg 65%
    20:00 +20°C° 0 mm 2 mps 757 mmHg 73%
    21:00 +20°C° 0 mm 2 mps 757 mmHg 77%
    22:00 +19°C° 0 mm 2 mps 758 mmHg 80%
    23:00 +18°C° 0 mm 2 mps 758 mmHg 84%

    26 July, Friday

    Time Temperature Precipitation Wind Pressure Humidity
    00:00 +17°C° 0 mm 2 mps 758 mmHg 87%
    01:00 +18°C° 0 mm 1 mps 758 mmHg 90%
    02:00 +18°C° 0 mm 1 mps 759 mmHg 92%
    03:00 +18°C° 0 mm 1 mps 759 mmHg 91%
    04:00 +18°C° 0 mm 1 mps 759 mmHg 90%
    05:00 +19°C° 0 mm 1 mps 759 mmHg 89%
    06:00 +21°C° 0 mm 1 mps 759 mmHg 81%
    07:00 +23°C° 0 mm 1 mps 759 mmHg 72%
    08:00 +25°C° 0 mm 1 mps 760 mmHg 64%
    09:00 +26°C° 0 mm 1 mps 760 mmHg 59%
    10:00 +28°C° 0 mm 1 mps 760 mmHg 53%
    11:00 +29°C° 0 mm 1 mps 760 mmHg 48%
    12:00 +29°C° 0 mm 1 mps 759 mmHg 46%
    13:00 +30°C° 0 mm 1 mps 759 mmHg 45%
    14:00 +30°C° 0 mm 1 mps 759 mmHg 43%
    15:00 +30°C° 0 mm 1 mps 758 mmHg 44%
    16:00 +29°C° 0 mm 1 mps 758 mmHg 45%
    17:00 +29°C° 0 mm 1 mps 758 mmHg 47%
    18:00 +27°C° 0 mm 1 mps 758 mmHg 54%
    19:00 +25°C° 0 mm 1 mps 758 mmHg 61%
    20:00 +23°C° 0 mm 1 mps 758 mmHg 69%
    21:00 +22°C° 0 mm 1 mps 758 mmHg 70%
    22:00 +21°C° 0 mm 1 mps 758 mmHg 72%
    23:00 +20°C° 0 mm 1 mps 758 mmHg 73%

    27 July, Saturday

    Time Temperature Precipitation Wind Pressure Humidity
    00:00 +20°C° 0 mm 1 mps 758 mmHg 74%
    01:00 +19°C° 0 mm 1 mps 758 mmHg 74%
    02:00 +19°C° 0 mm 1 mps 757 mmHg 74%
    03:00 +18°C° 0 mm 2 mps 757 mmHg 74%
    04:00 +18°C° 0 mm 2 mps 757 mmHg 73%
    05:00 +18°C° 0 mm 2 mps 757 mmHg 73%
    06:00 +20°C° 0 mm 2 mps 757 mmHg 65%
    07:00 +23°C° 0 mm 2 mps 757 mmHg 57%
    08:00 +25°C° 0 mm 2 mps 757 mmHg 50%
    09:00 +27°C° 0 mm 2 mps 756 mmHg 48%
    10:00 +28°C° 0 mm 2 mps 756 mmHg 45%
    11:00 +30°C° 0 mm 3 mps 756 mmHg 43%
    12:00 +30°C° 0 mm 3 mps 756 mmHg 41%
    13:00 +31°C° 0 mm 3 mps 755 mmHg 40%
    14:00 +33°C° 0 mm 3 mps 755 mmHg 38%
    15:00 +32°C° 0 mm 4 mps 755 mmHg 40%
    16:00 +32°C° 0 mm 4 mps 755 mmHg 42%
    17:00 +32°C° 0 mm 4 mps 755 mmHg 43%
    18:00 +28°C° 0 mm 4 mps 755 mmHg 55%
    19:00 +25°C° 0 mm 4 mps 755 mmHg 67%
    20:00 +22°C° 0 mm 4 mps 756 mmHg 78%
    21:00 +20°C° 0 mm 4 mps 756 mmHg 75%
    22:00 +18°C° 0 mm 4 mps 757 mmHg 71%
    23:00 +15°C° 0 mm 4 mps 757 mmHg 68%

    28 July, Sunday

    Time Temperature Precipitation Wind Pressure Humidity
    00:00 +14°C° 0 mm 4 mps 758 mmHg 69%
    01:00 +13°C° 0 mm 4 mps 758 mmHg 69%
    02:00 +11°C° 0 mm 3 mps 758 mmHg 70%
    03:00 +11°C° 0 mm 3 mps 758 mmHg 70%
    04:00 +10°C° 0 mm 3 mps 759 mmHg 70%
    05:00 +10°C° 0 mm 3 mps 759 mmHg 69%
    06:00 +11°C° 0 mm 3 mps 759 mmHg 64%
    07:00 +12°C° 0 mm 3 mps 759 mmHg 58%
    08:00 +13°C° 0 mm 3 mps 759 mmHg 52%
    09:00 +16°C° 0 mm 3 mps 759 mmHg 47%
    10:00 +17°C° 0 mm 3 mps 759 mmHg 43%
    11:00 +19°C° 0 mm 3 mps 759 mmHg 38%
    12:00 +19°C° 0 mm 2 mps 759 mmHg 37%
    13:00 +20°C° 0 mm 2 mps 758 mmHg 36%
    14:00 +21°C° 0 mm 2 mps 758 mmHg 36%
    15:00 +21°C° 0 mm 2 mps 758 mmHg 37%
    16:00 +22°C° 0 mm 1 mps 757 mmHg 39%
    17:00 +22°C° 0 mm 1 mps 757 mmHg 41%
    18:00 +21°C° 0 mm 1 mps 757 mmHg 46%
    19:00 +20°C° 0 mm 1 mps 757 mmHg 52%
    20:00 +19°C° 0 mm 1 mps 756 mmHg 57%
    21:00 +18°C° 0 mm 1 mps 756 mmHg 59%
    22:00 +18°C° 0 mm 1 mps 756 mmHg 61%
    23:00 +16°C° 0 mm 1 mps 756 mmHg 64%
    Show more